Weather History for KAQV - June, 2014

Change the Weather History Date:

Thursday, June 5, 2014

  Actual Average (KPOE) Record (KPOE)
Temperature  
Mean Temperature 80 °F -  
Max Temperature 89 °F 85 °F 102 °F (2011)
Min Temperature 71 °F 67 °F 66 °F (2006)
Cooling Degree Days 15    
Growing Degree Days 30 (Base 50)    
Moisture  
Dew Point 72 °F    
Average Humidity 82    
Maximum Humidity 97    
Minimum Humidity 59    
Precipitation  
Precipitation 0.00 in - - ()
Sea Level Pressure  
Sea Level Pressure 29.88 in    
Wind  
Wind Speed 2 mph (South)    
Max Wind Speed 7 mph    
Max Gust Speed -    
Visibility 8 miles    
Events      
Averages and records for this station are not official NWS values.
T = Trace of Precipitation, MM = Missing Value Source: NWS Daily Summary

Daily Weather History Graph

Daily Weather History Graph

Search for Another Location

Airport or City:

Trip Planner

Search our weather history database for the weather conditions in past years. The results will help you decide how hot, cold, wet, or windy it might be!

Date:

Astronomy

Jun. 05, 2014 Rise Set
Actual Time 6:08 AM CDT 8:15 PM CDT
Civil Twilight 5:40 AM CDT 8:42 PM CDT
Nautical Twilight 5:07 AM CDT 9:16 PM CDT
Astronomical Twilight 4:30 AM CDT 9:52 PM CDT
Moon 1:04 PM CDT (6/5) 1:02 AM CDT (6/5)
Length of Visible Light 15h 02m
Length of Day
14h 06m
Waxing Crescent, 49% of the Moon is Illuminated
Jun 5
Waxing Crescent
Jun 5
First Quarter
Jun 12
Full
Jun 19
Last Quarter
Jun 27
New

Hourly Weather History & Observations

Time (CDT) Temp. Heat Index Dew Point Humidity Pressure Visibility Wind Dir Wind Speed Gust Speed Precip Events Conditions
12:56 AM 73.9 °F - 72.0 °F 93% 29.86 in 10.0 mi South 3.5 mph - N/A   Clear
1:56 AM 73.0 °F - 72.0 °F 96% 29.84 in 10.0 mi South 3.5 mph - N/A   Clear
2:56 AM 73.0 °F - 71.1 °F 93% 29.83 in 6.0 mi South 3.5 mph - N/A   Scattered Clouds
3:07 AM 73.0 °F - 71.1 °F 93% 29.85 in 8.0 mi Calm Calm - N/A   Mostly Cloudy
3:38 AM 73.0 °F - 71.1 °F 93% 29.86 in 7.0 mi Calm Calm - N/A   Scattered Clouds
3:56 AM 73.0 °F - 71.1 °F 93% 29.85 in 6.0 mi Calm Calm - N/A   Scattered Clouds
4:40 AM 72.0 °F - 70.0 °F 93% 29.88 in 8.0 mi Calm Calm - N/A   Mostly Cloudy
4:56 AM 71.1 °F - 70.0 °F 96% 29.87 in 7.0 mi Calm Calm - N/A   Scattered Clouds
5:01 AM 71.1 °F - 69.1 °F 93% 29.88 in 7.0 mi Calm Calm - N/A   Mostly Cloudy
5:56 AM 72.0 °F - 70.0 °F 93% 29.89 in 5.0 mi Calm Calm - N/A   Overcast
6:07 AM 72.0 °F - 70.0 °F 93% 29.90 in 4.0 mi Calm Calm - N/A   Overcast
6:14 AM 72.0 °F - 70.0 °F 93% 29.91 in 3.0 mi Calm Calm - N/A   Overcast
6:37 AM 72.0 °F - 71.1 °F 97% 29.90 in 2.0 mi Calm Calm - N/A   Overcast
6:45 AM 72.0 °F - 71.1 °F 97% 29.90 in 3.0 mi SE 3.5 mph - N/A   Overcast
6:56 AM 72.0 °F - 71.1 °F 97% 29.89 in 4.0 mi Calm Calm - N/A   Overcast
7:56 AM 73.9 °F - 72.0 °F 93% 29.89 in 6.0 mi Calm Calm - N/A   Overcast
8:45 AM 75.9 °F - 73.0 °F 91% 29.90 in 10.0 mi Variable 4.6 mph - N/A   Overcast
8:56 AM 77.0 °F - 72.0 °F 84% 29.89 in 10.0 mi Calm Calm - N/A   Overcast
9:09 AM 77.0 °F - 72.0 °F 84% 29.91 in 8.0 mi SSW 3.5 mph - N/A   Mostly Cloudy
9:26 AM 80.1 °F 83.8 °F 72.0 °F 76% 29.90 in 10.0 mi Calm Calm - N/A   Scattered Clouds
9:56 AM 81.0 °F 84.9 °F 71.1 °F 72% 29.90 in 10.0 mi Variable 3.5 mph - N/A   Partly Cloudy
10:39 AM 82.9 °F 87.5 °F 71.1 °F 67% 29.88 in 10.0 mi SSW 3.5 mph - N/A   Mostly Cloudy
10:52 AM 82.4 °F 87.2 °F 71.6 °F 70% 29.89 in 10.0 mi Variable 5.8 mph - N/A   Mostly Cloudy
10:56 AM 82.0 °F 85.9 °F 70.0 °F 67% 29.88 in 10.0 mi Variable 6.9 mph - N/A   Mostly Cloudy
11:56 AM 87.1 °F 93.6 °F 72.0 °F 61% 29.89 in 10.0 mi Variable 6.9 mph - N/A   Scattered Clouds
12:56 PM 87.1 °F 92.8 °F 71.1 °F 59% 29.89 in 8.0 mi Variable 5.8 mph - N/A   Scattered Clouds
1:56 PM 88.0 °F 94.7 °F 72.0 °F 59% 29.90 in 10.0 mi Calm Calm - N/A   Mostly Cloudy
2:56 PM 88.0 °F 94.7 °F 72.0 °F 59% 29.89 in 10.0 mi South 3.5 mph - N/A   Overcast
3:56 PM 87.1 °F 94.5 °F 73.0 °F 63% 29.89 in 10.0 mi Calm Calm - N/A   Overcast
4:56 PM 89.1 °F 97.0 °F 73.0 °F 59% 29.87 in 10.0 mi Variable 3.5 mph - N/A   Overcast
5:56 PM 87.1 °F 95.4 °F 73.9 °F 65% 29.85 in 10.0 mi Variable 3.5 mph - N/A   Partly Cloudy
6:56 PM 86.0 °F 93.8 °F 73.9 °F 67% 29.84 in 10.0 mi Calm Calm - N/A   Clear
7:56 PM 82.0 °F 88.6 °F 75.0 °F 79% 29.83 in 10.0 mi Calm Calm - N/A   Clear
8:56 PM 81.0 °F 87.3 °F 75.9 °F 85% 29.84 in 10.0 mi Calm Calm - N/A   Mostly Cloudy
9:56 PM 79.0 °F - 75.0 °F 88% 29.86 in 10.0 mi South 3.5 mph - N/A   Clear
10:56 PM 78.1 °F - 73.9 °F 87% 29.88 in 10.0 mi Calm Calm - N/A   Clear
11:56 PM 77.0 °F - 72.0 °F 84% 29.88 in 10.0 mi SSW 3.5 mph - N/A   Clear